This is the latest recevied weather packets stored in our database for station/object F1PPH-1. If no packets are shown the sender has not sent any weather packets the latest 10 day(s).
| Time | Temp. | Humidity | Pressure | Rain* | Wind** | Luminosity | Snow |
|---|---|---|---|---|---|---|---|
| 1777734129 | 23.33° C | 44% | 1008.8 hPa | - | - | - | - |
| 1777731249 | 21.67° C | 43% | 1008.8 hPa | - | - | - | - |
| 1777727649 | 25° C | 40% | 1010.1 hPa | - | - | - | - |
| 1777724049 | 24.44° C | 41% | 1010.2 hPa | - | - | - | - |
| 1777717567 | 27.78° C | 40% | 1010.7 hPa | - | - | - | - |
| 1777714688 | 28.89° C | 42% | 1010.2 hPa | - | - | - | - |
| 1777711087 | 22.78° C | 46% | 1010.8 hPa | - | - | - | - |
| 1777708207 | 20.56° C | 48% | 1011.4 hPa | - | - | - | - |
| 1777704606 | 17.78° C | 48% | 1011.7 hPa | - | - | - | - |
| 1777701007 | 15.56° C | 47% | 1011.7 hPa | - | - | - | - |
| 1777697406 | 15° C | 47% | 1011.9 hPa | - | - | - | - |
| 1777693808 | 15° C | 46% | 1012 hPa | - | - | - | - |
| 1777690205 | 15.56° C | 45% | 1012.4 hPa | - | - | - | - |
| 1777686605 | 16.11° C | 45% | 1012.8 hPa | - | - | - | - |
| 1777683004 | 16.67° C | 44% | 1013.5 hPa | - | - | - | - |
| 1777679406 | 17.78° C | 42% | 1013.9 hPa | - | - | - | - |
| 1777676215 | 18.33° C | 41% | 1013.9 hPa | - | - | - | - |
| 1777669014 | 21.67° C | 39% | 1014 hPa | - | - | - | - |
| 1777665413 | 23.33° C | 38% | 1014 hPa | - | - | - | - |
| 1777661813 | 25.56° C | 37% | 1013.3 hPa | - | - | - | - |
| 1777654613 | 29.44° C | 34% | 1012.6 hPa | - | - | - | - |
| 1777651732 | 31.67° C | 33% | 1012.6 hPa | - | - | - | - |
| 1777648854 | 33.33° C | 33% | 1013 hPa | - | - | - | - |
| 1777645971 | 36.11° C | 33% | 1013.4 hPa | - | - | - | - |
| 1777642371 | 34.44° C | 35% | 1014 hPa | - | - | - | - |
* Rain since midnight (hover to see other rain measurements)
** Current wind speed in m/s (hover to see current wind gust speed)